Location: ????????
(55.0097°N, 38.5678°E)
Time: 13:36:07
(UTC+00:00)

SL-16 R/B - Pass Details

Date: 14 April 2024
Orbit: 985 x 1006 km, 99.7° (Epoch: 17 May)

Event Time Altitude Azimuth Distance (km) Brightness Sun altitude
Exits shadow 00:51:34 12° 203° (SSW) 2,619 4.2 -12.6°
Maximum altitude 00:56:44 35° 265° (W) 1,564 3.2 -12.0°
Drops below altitude 10° 01:02:23 10° 330° (NNW) 2,780 5.0 -11.3°
Sets 01:05:09 0° 339° (NNW) 3,737 5.7 -11.0°
